Location: Gombori
(14.9797°N, 2.9419°W)
Time: 10:39:48
(UTC+00:00)

USA 306 - Pass Details

Date: 29 July 2021
Orbit: 564 x 573 km, 54.0° (Epoch: 21 September)

Event Time Altitude Azimuth Distance (km) Brightness Sun altitude
Rises 19:33:29 0° 339° (NNW) 2,762 7.1 -12.3°
Reaches altitude 10° 19:35:57 10° 351° (N) 1,863 6.0 -12.8°
Maximum altitude 19:39:41 30° 52° (NE) 1,033 3.9 -13.7°
Enters shadow 19:41:30 21° 94° (E) 1,276 4.1 -14.1°
